This is the latest recevied weather packets stored in our database for station/object N5YHM-13. If no packets are shown the sender has not sent any weather packets the latest 10 day(s).
| Time | Temp. | Humidity | Pressure | Rain* | Wind** | Luminosity | Snow |
|---|---|---|---|---|---|---|---|
| 1787614436 | 25° C | 99% | 1019.2 hPa | 1.78 mm | - | 3 W/m² | - |
| 1787614133 | 25° C | 99% | 1019.1 hPa | 0 mm | - | 3 W/m² | - |
| 1787613829 | 25° C | 99% | 1019.2 hPa | 0 mm | - | 2 W/m² | - |
| 1787613524 | 25° C | 99% | 1019.5 hPa | 0 mm | - | 2 W/m² | - |
| 1787613219 | 25° C | 99% | 1019.5 hPa | 1.78 mm | - | 2 W/m² | - |
| 1787612916 | 25° C | 99% | 1019.5 hPa | 1.78 mm | - | 2 W/m² | - |
| 1787612612 | 25° C | 99% | 1019.4 hPa | 0 mm | - | 2 W/m² | - |
| 1787612308 | 25° C | 99% | 1019.3 hPa | 0 mm | - | 1 W/m² | - |
| 1787612004 | 25° C | 99% | 1019.5 hPa | 1.27 mm | - | 1 W/m² | - |
| 1787611700 | 25° C | 99% | 1019.1 hPa | 1.27 mm | - | 2 W/m² | - |
| 1787611396 | 25° C | 99% | 1019.4 hPa | 0 mm | - | 2 W/m² | - |
| 1787611090 | 25° C | 99% | 1019.2 hPa | 1.78 mm | - | 2 W/m² | - |
| 1787610787 | 25° C | 99% | 1019.2 hPa | 1.78 mm | - | 2 W/m² | - |
| 1787610482 | 25° C | 99% | 1019.2 hPa | 0 mm | - | 3 W/m² | - |
| 1787610175 | 25° C | 99% | 1018.9 hPa | 1.27 mm | - | 3 W/m² | - |
| 1787609875 | 25° C | 99% | 1018.9 hPa | 1.27 mm | - | 5 W/m² | - |
| 1787609569 | 25° C | 99% | 1018.6 hPa | 0 mm | - | 6 W/m² | - |
| 1787609268 | 25° C | 99% | 1018.6 hPa | 1.78 mm | - | 7 W/m² | - |
| 1787608963 | 25° C | 99% | 1018.7 hPa | 1.78 mm | - | 7 W/m² | - |
| 1787608658 | 25° C | 99% | 1018.6 hPa | 0 mm | - | 7 W/m² | - |
| 1787608352 | 25° C | 99% | 1018.6 hPa | 1.27 mm | - | 7 W/m² | - |
| 1787608050 | 25° C | 99% | 1018.7 hPa | 1.27 mm | - | 7 W/m² | - |
| 1787607746 | 24.44° C | 99% | 1018.5 hPa | 1.78 mm | - | 8 W/m² | - |
| 1787607443 | 24.44° C | 99% | 1018.2 hPa | 1.78 mm | - | 8 W/m² | - |
| 1787607140 | 24.44° C | 99% | 1018.2 hPa | 1.27 mm | - | 8 W/m² | - |
* Rain latest hour (hover to see other rain measurements)
** Current wind speed in m/s (hover to see current wind gust speed)